Location: Lac de la Montange Noire
(46.1952°N, 74.2701°W)
Time: 23:55:04
(UTC-04:00)

Iridium 42 - Visible Passes

Search period start: 19 September 2014 00:00
Search period end: 29 September 2014 00:00
Orbit: 776 x 779 km, 86.4° (Epoch: 19 September)

Date Brightness Start Highest point End Pass type
(mag) Time Alt. Az. Time Alt. Az. Time Alt. Az.
19 Sep 8.1 05:34:26 10° SE 05:38:39 26° E 05:42:52 10° NNE visible
20 Sep 8.7 05:02:38 10° ESE 05:05:27 15° ENE 05:08:16 10° NE visible
21 Sep 6.2 06:06:50 10° SSE 06:11:57 62° E 06:17:06 10° N visible
22 Sep 7.3 05:33:53 10° SSE 05:38:34 35° E 05:43:16 10° NNE visible
22 Sep 8.9 19:23:33 10° NW 19:26:08 14° WNW 19:28:43 10° WSW visible
23 Sep 8.3 05:01:31 10° SE 05:05:17 21° ENE 05:09:04 10° NNE visible
24 Sep 8.8 04:30:23 10° E 04:32:08 12° ENE 04:33:53 10° NE visible
24 Sep 5.6 06:06:47 10° S 06:11:59 87° E 06:17:14 10° N visible
25 Sep 6.6 05:33:32 10° SSE 05:38:31 49° E 05:43:32 10° NNE visible
26 Sep 7.6 05:00:47 10° SE 05:05:10 28° E 05:09:34 10° NNE visible
27 Sep 8.4 04:28:45 10° ESE 04:31:57 17° ENE 04:35:08 10° NE visible
27 Sep 5.5 06:06:53 10° SSW 06:12:03 67° W 06:17:16 10° N visible
28 Sep 5.9 05:33:21 10° S 05:38:31 70° E 05:43:43 10° N visible
